Flag for Comoros Weather past 2 weeks in Mutsamudu, Comoros

Now
90 °F

Scattered clouds.


Feels Like: 103 °F
Forecast: 79 / 84 °F
Wind: 10 mph from North

Location: Dzaoudzi / Pamanzi Mayotte

Current Time: Dec 20, 2014 at 10:40:14 AM

Latest Report: Dec 20, 2014 at 10:00 AM


Visibility: N/A

Pressure: 29.92 "Hg

Humidity: 67%

Dew point: 77 °F

Location of MutsamuduLocation

Historic Weather in Mutsamudu — Graph

°F

Mutsamudu temperature yesterday

Maximum temperature yesterday: 90 °F (at 11:04 AM)
Minimum temperature yesterday: 82 °F (at 12:00 AM)
Average temperature yesterday: 85 °F

Past Weeks' High & Low Weather Summary

 TemperatureHumidityPressure
High90 °F (Dec 12, 8:30 AM)94% (Dec 6, 6:00 AM)29.98 "Hg (Dec 6, 6:00 AM)
Low75 °F (Dec 6, 2:30 AM)59% (Dec 8, 11:00 AM)29.80 "Hg (Dec 18, 3:00 PM)
Average83 °F74%29.90 "Hg
* Reported Dec 5 9:00 AM — Dec 20 9:30 AM, Mutsamudu, Weather by CustomWeather, © 2014

Note: Actual official high and low records may vary slightly from our data, if they occured in-between our weather recording intervals... More about our weather records

Advertising

Mutsamudu weather history for previous 24 hours

 ConditionsComfort  
Time TempWeatherWind HumidityBarometerVisibility
9:30 AM
Dec 20
90 °FScattered clouds.10 mph63%29.92 "HgN/A
9:00 AM90 °FScattered clouds.8 mph63%29.92 "HgN/A
8:30 AM88 °FScattered clouds.8 mph66%29.92 "HgN/A
8:00 AM86 °FScattered clouds.10 mph70%29.92 "HgN/A
7:30 AM86 °FScattered clouds.7 mph75%29.92 "HgN/A
7:00 AM86 °FScattered clouds.6 mph75%29.89 "HgN/A
6:30 AM84 °FScattered clouds.6 mph79%29.89 "HgN/A
6:00 AM82 °FScattered clouds.3 mph79%29.89 "HgN/A
5:30 AM82 °FScattered clouds.6 mph79%29.86 "HgN/A
5:00 AM82 °FPassing clouds.5 mph79%29.86 "HgN/A
4:30 AM82 °FOvercast.6 mph79%29.86 "HgN/A
4:00 AM82 °FPassing clouds.5 mph79%29.86 "HgN/A
3:30 AM82 °FPassing clouds.5 mph79%29.86 "HgN/A
3:00 AM82 °FOvercast.5 mph79%29.86 "HgN/A
2:30 AM82 °FMostly cloudy.3 mph79%29.86 "HgN/A
2:00 AM82 °FOvercast.3 mph79%29.86 "HgN/A
1:30 AM82 °FPartly cloudy.2 mph79%29.86 "HgN/A
1:00 AM82 °FPassing clouds.5 mph79%29.86 "HgN/A
12:30 AM82 °FPassing clouds.3 mph79%29.89 "HgN/A
12:00 AM82 °FPassing clouds.5 mph79%29.89 "HgN/A
11:30 PM
Dec 19
82 °FPassing clouds.5 mph79%29.89 "HgN/A
11:00 PM82 °FPassing clouds.2 mph79%29.92 "HgN/A
10:30 PM82 °FPassing clouds.5 mph79%29.92 "HgN/A
10:00 PM82 °FPassing clouds.3 mph79%29.89 "HgN/A
9:30 PM82 °FPassing clouds.3 mph79%29.89 "HgN/A
9:00 PM82 °FWarm.5 mph74%29.89 "HgN/A
8:30 PM84 °FWarm.5 mph74%29.89 "HgN/A
8:00 PM84 °FWarm.7 mph74%29.86 "HgN/A
7:30 PM84 °FPassing clouds.7 mph74%29.86 "HgN/A
7:00 PM84 °FPassing clouds.9 mph74%29.86 "HgN/A
6:30 PM84 °FWarm.9 mph70%29.83 "HgN/A
6:00 PM86 °FPassing clouds.9 mph66%29.83 "HgN/A
5:30 PM88 °FPassing clouds.9 mph62%29.83 "HgN/A
5:00 PM88 °FPassing clouds.12 mph62%29.83 "HgN/A
4:30 PM88 °FPassing clouds.12 mph66%29.83 "HgN/A
4:00 PM90 °FPassing clouds.12 mph59%29.83 "HgN/A
3:30 PM90 °FScattered clouds.12 mph59%29.83 "HgN/A
3:00 PM90 °FScattered clouds.12 mph63%29.83 "HgN/A
2:30 PM90 °FScattered clouds.12 mph59%29.86 "HgN/A
2:00 PM90 °FScattered clouds.12 mph63%29.86 "HgN/A
1:30 PM90 °FPartly sunny.13 mph63%29.86 "HgN/A
1:00 PM90 °FPartly sunny.12 mph63%29.86 "HgN/A
12:35 PM90 °FPartly sunny.12 mph63%29.89 "HgN/A
12:00 PM90 °FPartly sunny.13 mph63%29.92 "HgN/A
11:30 AM88 °FPartly sunny.14 mph66%29.92 "HgN/A
11:04 AM90 °FScattered clouds.15 mph67%29.92 "HgN/A
10:30 AM88 °FPartly sunny.13 mph70%29.95 "HgN/A
10:00 AM86 °FPartly sunny.9 mph75%29.95 "HgN/A
Weather by CustomWeather, © 2014

See weather overviewHow to use our weather pages